This is the latest recevied weather packets stored in our database for station/object KN6KS. If no packets are shown the sender has not sent any weather packets the latest 10 day(s).
| Time | Temp. | Humidity | Pressure | Rain* | Wind** | Luminosity | Snow |
|---|---|---|---|---|---|---|---|
| 1777504223 | 24.44° C | 28% | 1012.4 hPa | 0 mm | - | 492 W/m² | - |
| 1777503920 | 24.44° C | 27% | 1012.6 hPa | 0 mm | - | 505 W/m² | - |
| 1777503615 | 25° C | 25% | 1012.9 hPa | 0 mm | - | 522 W/m² | - |
| 1777503313 | 25° C | 21% | 1012.9 hPa | 0 mm | - | 528 W/m² | - |
| 1777503009 | 25° C | 21% | 1012.6 hPa | 0 mm | - | 553 W/m² | - |
| 1777502707 | 25° C | 20% | 1012.9 hPa | 0 mm | - | 557 W/m² | - |
| 1777502403 | 25° C | 20% | 1012.8 hPa | 0 mm | - | 557 W/m² | - |
| 1777502100 | 26.11° C | 19% | 1012.9 hPa | 0 mm | - | 556 W/m² | - |
| 1777501797 | 25° C | 20% | 1013 hPa | 0 mm | - | 562 W/m² | - |
| 1777501494 | 25° C | 20% | 1013.1 hPa | 0 mm | - | 557 W/m² | - |
| 1777501191 | 25° C | 20% | 1013 hPa | 0 mm | - | 590 W/m² | - |
| 1777500890 | 25.56° C | 20% | 1013.1 hPa | 0 mm | - | 597 W/m² | - |
| 1777500586 | 25° C | 20% | 1013.3 hPa | 0 mm | - | 602 W/m² | - |
| 1777500283 | 24.44° C | 20% | 1013.5 hPa | 0 mm | - | 600 W/m² | - |
| 1777499979 | 24.44° C | 22% | 1013.2 hPa | 0 mm | - | 607 W/m² | - |
| 1777499676 | 23.89° C | 21% | 1013.4 hPa | 0 mm | - | 622 W/m² | - |
| 1777499373 | 23.89° C | 22% | 1013.8 hPa | 0 mm | - | 613 W/m² | - |
| 1777499072 | 25° C | 21% | 1014 hPa | 0 mm | - | 609 W/m² | - |
| 1777498767 | 23.89° C | 22% | 1014 hPa | 0 mm | - | 636 W/m² | - |
| 1777498464 | 24.44° C | 21% | 1013.8 hPa | 0 mm | - | 655 W/m² | - |
| 1777498160 | 23.89° C | 21% | 1014 hPa | 0 mm | - | 656 W/m² | - |
| 1777497858 | 24.44° C | 22% | 1014.1 hPa | 0 mm | - | 643 W/m² | - |
| 1777497554 | 24.44° C | 21% | 1014.2 hPa | 0 mm | - | 657 W/m² | - |
| 1777497250 | 23.89° C | 23% | 1014.4 hPa | 0 mm | - | 677 W/m² | - |
| 1777496947 | 23.33° C | 22% | 1014.2 hPa | 0 mm | - | 691 W/m² | - |
* Rain latest hour (hover to see other rain measurements)
** Current wind speed in m/s (hover to see current wind gust speed)